Time,TemperatureF,DewpointF,PressureIn,WindDirection,WindDirectionDegrees,WindSpeedMPH,WindSpeedGustMPH,Humidity,HourlyPrecipIn,Conditions,Clouds,dailyrainin,SoftwareType,DateUTC
2013-08-15 00:12:00,62.0,53.0,30.04,SE,138,0.0,-999.0,72,-99.99,,,-99.99,,2013-08-15 05:12:00,
2013-08-15 00:22:00,62.0,53.0,30.04,SE,138,0.0,-999.0,73,-99.99,,,-99.99,,2013-08-15 05:22:00,
2013-08-15 00:52:00,61.0,53.0,30.04,SE,138,0.0,-999.0,75,-99.99,,,-99.99,,2013-08-15 05:52:00,
2013-08-15 01:21:00,60.0,53.0,30.04,SE,138,0.0,-999.0,77,-99.99,,,-99.99,,2013-08-15 06:21:00,
2013-08-15 01:52:00,60.0,53.0,30.03,SE,138,0.0,-999.0,78,-99.99,,,-99.99,,2013-08-15 06:52:00,
2013-08-15 02:21:00,60.0,53.0,30.03,SE,138,1.0,-999.0,78,-99.99,,,-99.99,,2013-08-15 07:21:00,
2013-08-15 02:52:00,60.0,54.0,30.03,SE,137,0.0,-999.0,81,-99.99,,,-99.99,,2013-08-15 07:52:00,
2013-08-15 03:11:00,60.0,54.0,30.03,SE,138,0.0,-999.0,82,-99.99,,,-99.99,,2013-08-15 08:11:00,
2013-08-15 03:21:00,60.0,54.0,30.02,SE,137,0.0,-999.0,82,-99.99,,,-99.99,,2013-08-15 08:21:00,
2013-08-15 03:33:00,60.0,54.0,30.02,SE,137,0.0,-999.0,82,-99.99,,,-99.99,,2013-08-15 08:33:00,
2013-08-15 03:52:00,59.0,54.0,30.03,SE,137,1.0,-999.0,83,-99.99,,,-99.99,,2013-08-15 08:52:00,
2013-08-15 04:11:00,58.0,54.0,30.02,SE,138,0.0,-999.0,85,-99.99,,,-99.99,,2013-08-15 09:11:00,
2013-08-15 04:21:00,57.0,53.0,30.03,SE,138,0.0,-999.0,86,-99.99,,,-99.99,,2013-08-15 09:21:00,
2013-08-15 04:53:00,56.0,52.0,30.02,SE,138,0.0,-999.0,87,-99.99,,,-99.99,,2013-08-15 09:53:00,
2013-08-15 05:12:00,56.0,52.0,30.02,SE,138,0.0,-999.0,88,-99.99,,,-99.99,,2013-08-15 10:12:00,
2013-08-15 05:22:00,56.0,53.0,30.03,SE,138,0.0,-999.0,89,-99.99,,,-99.99,,2013-08-15 10:22:00,
2013-08-15 05:52:00,56.0,53.0,30.03,SE,137,0.0,-999.0,89,-99.99,,,-99.99,,2013-08-15 10:52:00,
2013-08-15 06:11:00,55.0,52.0,30.03,SE,138,0.0,-999.0,89,-99.99,,,-99.99,,2013-08-15 11:11:00,
2013-08-15 06:22:00,55.0,52.0,30.04,SE,138,0.0,-999.0,91,-99.99,,,-99.99,,2013-08-15 11:22:00,
2013-08-15 06:51:00,55.0,52.0,30.04,SE,138,0.0,-999.0,91,-99.99,,,-99.99,,2013-08-15 11:51:00,
2013-08-15 07:11:00,55.0,52.0,30.04,SE,137,0.0,-999.0,91,-99.99,,,-99.99,,2013-08-15 12:11:00,
2013-08-15 07:21:00,55.0,52.0,30.05,SE,138,0.0,-999.0,91,-99.99,,,-99.99,,2013-08-15 12:21:00,
2013-08-15 07:52:00,55.0,52.0,30.06,SE,138,0.0,-999.0,90,-99.99,,,-99.99,,2013-08-15 12:52:00,
2013-08-15 08:11:00,54.0,51.0,30.06,SE,138,0.0,-999.0,91,-99.99,,,-99.99,,2013-08-15 13:11:00,
2013-08-15 08:21:00,56.0,53.0,30.06,SE,138,0.0,-999.0,91,-99.99,,,-99.99,,2013-08-15 13:21:00,
2013-08-15 08:52:00,60.0,56.0,30.06,SE,138,4.0,-999.0,88,-99.99,,,-99.99,,2013-08-15 13:52:00,
2013-08-15 09:22:00,61.0,57.0,30.06,SE,137,3.0,-999.0,87,-99.99,,,-99.99,,2013-08-15 14:22:00,
2013-08-15 09:53:00,66.0,59.0,30.07,SE,138,2.0,-999.0,78,-99.99,,,-99.99,,2013-08-15 14:53:00,
2013-08-15 10:13:00,67.0,59.0,30.06,SE,138,0.0,-999.0,76,-99.99,,,-99.99,,2013-08-15 15:13:00,
2013-08-15 10:23:00,67.0,58.0,30.06,SE,138,2.0,-999.0,73,-99.99,,,-99.99,,2013-08-15 15:23:00,
2013-08-15 10:54:00,72.0,60.0,30.05,SE,138,3.0,-999.0,66,-99.99,,,-99.99,,2013-08-15 15:54:00,
2013-08-15 11:13:00,74.0,60.0,30.05,SE,138,1.0,-999.0,62,-99.99,,,-99.99,,2013-08-15 16:13:00,
2013-08-15 11:26:00,74.0,60.0,30.05,SE,138,3.0,-999.0,62,-99.99,,,-99.99,,2013-08-15 16:26:00,
2013-08-15 11:55:00,71.0,59.0,30.05,SE,138,1.0,-999.0,65,-99.99,,,-99.99,,2013-08-15 16:55:00,
2013-08-15 12:18:00,71.0,58.0,30.05,SE,138,3.0,-999.0,63,-99.99,,,-99.99,,2013-08-15 17:18:00,
2013-08-15 12:30:00,71.0,-99.9,30.05,SE,138,0.0,-999.0,63,-99.99,,,-99.99,,2013-08-15 17:30:00,
2013-08-15 12:54:00,73.0,59.0,30.05,SE,138,3.0,-999.0,62,-99.99,,,-99.99,,2013-08-15 17:54:00,
2013-08-15 13:00:00,-999.0,-99.9,30.05,SE,138,1.0,-999.0,-999,-99.99,,,-99.99,,2013-08-15 18:00:00,
2013-08-15 13:25:00,73.0,58.0,30.05,SE,138,3.0,-999.0,59,-99.99,,,-99.99,,2013-08-15 18:25:00,
2013-08-15 13:35:00,-999.0,-99.9,30.04,SE,138,1.0,-999.0,-999,-99.99,,,-99.99,,2013-08-15 18:35:00,
2013-08-15 14:06:00,-999.0,-99.9,30.03,SE,138,1.0,-999.0,-999,-99.99,,,-99.99,,2013-08-15 19:06:00,
2013-08-15 14:17:00,75.0,58.0,30.03,SE,145,3.0,-999.0,55,-99.99,,,-99.99,,2013-08-15 19:17:00,
2013-08-15 14:34:00,-999.0,-99.9,30.03,SE,145,1.0,-999.0,-999,-99.99,,,-99.99,,2013-08-15 19:34:00,
2013-08-15 15:11:00,76.0,58.0,30.03,SE,145,2.0,-999.0,53,-99.99,,,-99.99,,2013-08-15 20:11:00,
2013-08-15 15:30:00,77.0,56.0,30.02,SE,145,0.0,-999.0,49,-99.99,,,-99.99,,2013-08-15 20:30:00,
2013-08-15 16:00:00,78.0,56.0,30.02,SE,145,0.0,-999.0,46,-99.99,,,-99.99,,2013-08-15 21:00:00,
2013-08-15 16:57:00,78.0,54.0,30.01,SE,146,0.0,-999.0,44,-99.99,,,-99.99,,2013-08-15 21:57:00,
2013-08-15 17:29:00,78.0,57.0,30.01,SE,146,0.0,-999.0,49,-99.99,,,-99.99,,2013-08-15 22:29:00,
2013-08-15 17:58:00,77.0,58.0,30.02,SE,146,1.0,-999.0,52,-99.99,,,-99.99,,2013-08-15 22:58:00,
2013-08-15 18:34:00,-999.0,-99.9,30.03,SE,146,2.0,-999.0,52,-99.99,,,-99.99,,2013-08-15 23:34:00,
2013-08-15 18:40:00,76.0,57.0,30.03,SE,146,2.0,-999.0,52,-99.99,,,-99.99,,2013-08-15 23:40:00,
2013-08-15 18:55:00,76.0,56.0,30.02,SE,145,2.0,-999.0,50,-99.99,,,-99.99,,2013-08-15 23:55:00,
2013-08-15 19:12:00,77.0,56.0,30.02,SE,145,1.0,-999.0,49,-99.99,,,-99.99,,2013-08-16 00:12:00,
2013-08-15 19:24:00,78.0,57.0,30.02,SE,145,1.0,-999.0,49,-99.99,,,-99.99,,2013-08-16 00:24:00,
2013-08-15 19:46:00,77.0,57.0,30.02,SE,145,2.0,-999.0,50,-99.99,,,-99.99,,2013-08-16 00:46:00,
2013-08-15 19:52:00,77.0,57.0,30.02,SE,145,0.0,-999.0,50,-99.99,,,-99.99,,2013-08-16 00:52:00,
2013-08-15 20:20:00,77.0,56.0,30.02,SE,146,0.0,-999.0,49,-99.99,,,-99.99,,2013-08-16 01:20:00,
2013-08-15 20:26:00,76.0,57.0,30.02,SE,145,0.0,-999.0,51,-99.99,,,-99.99,,2013-08-16 01:26:00,
2013-08-15 20:43:00,-999.0,-99.9,30.02,SE,146,0.0,-999.0,-999,-99.99,,,-99.99,,2013-08-16 01:43:00,
2013-08-15 20:54:00,73.0,58.0,30.02,SE,146,0.0,-999.0,59,-99.99,,,-99.99,,2013-08-16 01:54:00,
2013-08-15 21:21:00,71.0,57.0,30.03,SE,145,0.0,-999.0,62,-99.99,,,-99.99,,2013-08-16 02:21:00,
2013-08-15 21:43:00,70.0,57.0,30.03,SE,146,0.0,-999.0,64,-99.99,,,-99.99,,2013-08-16 02:43:00,
2013-08-15 21:52:00,69.0,57.0,30.03,SE,146,0.0,-999.0,65,-99.99,,,-99.99,,2013-08-16 02:52:00,
2013-08-15 22:22:00,68.0,57.0,30.04,SE,145,0.0,-999.0,68,-99.99,,,-99.99,,2013-08-16 03:22:00,
2013-08-15 22:53:00,67.0,57.0,30.05,SE,146,0.0,-999.0,70,-99.99,,,-99.99,,2013-08-16 03:53:00,
2013-08-15 23:23:00,66.0,57.0,30.05,SE,146,0.0,-999.0,72,-99.99,,,-99.99,,2013-08-16 04:23:00,
2013-08-15 23:53:00,65.0,57.0,30.06,SE,146,0.0,-999.0,76,-99.99,,,-99.99,,2013-08-16 04:53:00,